Hourly Data Report for September 25, 2017

All times are specified in Local Standard Time (LST). Add 1 hour to adjust for Daylight Saving Time where and when it is observed.

GRAND MANAN SAR CS
NEW BRUNSWICK

44°42'43.400" N
66°48'06.900" W
78.20 m
8101925
71030
XGM

Download Data

Hourly Data (September 2017)
Hourly Data Report for September 25, 2017
Temp Definition
°C
Dew Point Temp Definition
°C
Rel Hum Definition
%
Wind Dir Definition
10's deg

Wind Spd Definition
km/h
Visibility Definition
km
Stn Press Definition
kPa
Hmdx Definition


Wind Chill Definition


Weather Definition


TIME
00:00 19.3 16.5 84 25 6   100.71     LegendNANA
01:00 18.0 15.5 85 23 5   100.74     LegendNANA
02:00 17.2 15.4 89 1 7   100.79     LegendNANA
03:00 14.5 13.2 92 6 6   100.77     LegendNANA
04:00 14.1 13.2 94 0 1   100.80     LegendNANA
05:00 15.0 14.1 94 5 9   100.81     LegendNANA
06:00 14.4 13.5 94 4 11   100.90     LegendNANA
07:00 14.3 13.7 96 5 12   100.96     LegendNANA
08:00 14.5 13.6 94 6 18   101.03     LegendNANA
09:00 16.6 14.7 89 7 18   101.06     LegendNANA
10:00 17.4 14.5 83 7 15   101.07     LegendNANA
11:00 18.9 14.6 76 8 11   101.05     LegendNANA
12:00 20.1 15.3 74 7 9   101.03     LegendNANA
13:00 21.0 15.6 71 6 9   100.98 25   LegendNANA
14:00 21.9 15.7 68 8 8   100.97 26   LegendNANA
15:00 21.3 15.1 68 12 8   100.95 25   LegendNANA
16:00 20.7 15.2 71 16 9   100.92 25   LegendNANA
17:00 18.9 14.7 77 19 8   100.90     LegendNANA
18:00 16.6 14.2 86 21 7   100.89     LegendNANA
19:00 15.4 14.1 92 23 6   100.89     LegendNANA
20:00 15.1 14.2 95 24 8   100.91     LegendNANA
21:00 16.1 15.6 97 23 10   100.89     LegendNANA
22:00 16.4 16.0 98 23 9   100.86     LegendNANA
23:00 17.1 16.6 97 25 13   100.84     LegendNANA

Notes on Data Quality.

Legend

  • E = Estimated
  • M = Missing
  • NA = Not Available
  • ‡ = Partner data that is not subject to review by the National Climate Archives
Date modified: